Regional Weather Roundup
Issued by NWS

Home | Current Version | Previous Version | Text Only | Print | Product List | Glossary On
Versions: 1 2 3 4 5 6 7 8 9 10 11 12 13 14 15 16 17 18 19 20 21 22 23 24 25 26 27 28 29 30 31 32 33 34 35 36 37 38 39 40 41 42 43 44 45 46 47 48 49 50
000
ASUS43 KLOT 142109
RWRIL

ILLINOIS REGIONAL WEATHER ROUNDUP
NATIONAL WEATHER SERVICE CHICAGO/ROMEOVILLE IL
400 PM CDT TUE AUG 14 2018

NOTE: "FAIR" INDICATES FEW OR NO CLOUDS BELOW 12,000 FEET WITH NO
SIGNIFICANT WEATHER AND/OR OBSTRUCTIONS TO VISIBILITY.

* THESE STATIONS ARE NOT UNDER NWS QUALITY CONTROL. THEY ALSO MAY NOT
  REPORT WEATHER SUCH AS PRECIPITATION OR FOG.

ILZ001-002-007-009-015-016-024-142200-
NORTHWEST ILLINOIS

CITY           SKY/WX    TMP DP  RH WIND       PRES   REMARKS
MOLINE         FAIR      85  70  60 S6        29.93F HX  89
STERLING*      FAIR      85  66  53 SE5       29.96F HX  87
SAVANNA*       FAIR      86  68  54 E7        29.94F HX  89
$$

ILZ003-004-008-010-011-017-018-142200-
NORTH CENTRAL ILLINOIS

CITY           SKY/WX    TMP DP  RH WIND       PRES   REMARKS
ROCKFORD       CLOUDY    82  67  60 SW8       29.98F HX  84
FREEPORT*      FAIR      83  65  53 S7        29.99F HX  85
ROCHELLE*      FAIR      82  69  64 CALM      29.98F HX  86
DE KALB*       FAIR      82  67  60 SW6       29.99F HX  85
PERU*          FAIR      88  62  42 S6        29.96F HX  88
$$

ILZ005-006-012>014-019>023-142200-
NORTHEAST ILLINOIS

CITY           SKY/WX    TMP DP  RH WIND       PRES   REMARKS
CHICAGO-OHARE  PTSUNNY   86  63  45 SW7       29.95F HX  87
CHICAGO-MIDWAY PTSUNNY   87  63  44 W9        29.96S HX  88
AURORA         FAIR      85  66  53 SW6       29.97F HX  87
LANSING*       PTSUNNY   87  62  43 SW8       29.96F HX  88
JOLIET*        FAIR      88  61  40 SW7       29.96F HX  88
WAUKEGAN       PTSUNNY   82  69  64 SE6       29.95F HX  85
DUPAGE AIRPORT FAIR      87  65  47 W5        29.96F HX  89
KANKAKEE*      FAIR      88  60  38 SW10      29.97F HX  87
WHEELING       PTSUNNY   87  64  46 W9        29.97S HX  88
MORRIS*        FAIR      87  63  45 SW7       29.95F HX  87
ROMEOVILLE*    FAIR      86  60  42 W5        29.96F HX  85
NORTHERLY ISL    N/A     81  70  69 E9          N/A  HX  84
$$

LMZ740>746-142200-
SOUTHERN LAKE MICHIGAN

STATION/POSITION SKY/WX   TEMP    WIND        PRES    VSBY  WAVE
                          AIR SEA DIR/SP/G                  HT/PER
                          (F)     (DEG/KT/KT) (MB)    (MI)  (FT/S)
SOUTHERN BUOY              78 78  170/  8/  8 1014.2F         1
WINTHROP HARBOR            79 77                N/A           1
WAUKEGAN HARBOR            79 77  180/  8       N/A           1
WILMETTE HARBOR            79 78  110/  8/  8   N/A           1/ 2
HARRISON CRIB              81     120/ 13/ 14   N/A
NORTHERLY ISL              80      90/  7/ 10   N/A
CALUMET HARBOR             85     200/ 10/ 13 1014.0F
BURNS HARBOR               82                 1015.2F
MICHIGAN CITY              81      30/  6/  6   N/A
MICHIGAN CITY 6N           81      80/  6/  6   N/A           0
ST. JOSEPH                 81      CALM  /  2 1014.6          1
$$

ILZ025>027-034>036-040-047-049-050-058-095>099-142200-
WEST-CENTRAL ILLINOIS

CITY           SKY/WX    TMP DP  RH WIND       PRES   REMARKS
QUINCY         CLOUDY    81  68  64 S7        29.93F HX  84
GALESBURG*     FAIR      85  64  49 SE3       29.95F HX  87
MACOMB*        PTSUNNY   81  71  71 SE8       29.96F HX  85
JACKSONVILLE*  CLOUDY    80  70  70 S10       29.94F HX  83
PITTSFIELD*    CLOUDY    82  71  70 S5        29.95F HX  86
$$

ILZ028>032-037-038-041>044-048-051>054-059>061-142200-
CENTRAL ILLINOIS

CITY           SKY/WX    TMP DP  RH WIND       PRES   REMARKS
PONTIAC        FAIR      85  62  46 S6        29.97F HX  85
BLOOMINGTON    FAIR      85  65  51 S13       29.98F HX  86
DECATUR        FAIR      85  68  56 S9        29.97F HX  88
PEORIA         FAIR      84  70  62 SE3       29.95F HX  88
LACON*         FAIR      88  65  47 SW5       29.94F HX  89
LINCOLN*       FAIR      87  69  55 SE6       29.96F HX  90
SPRINGFIELD    PTSUNNY   85  71  63 SE9       29.95F HX  90
TAYLORVILLE    FAIR      83  70  63 S9        29.97S HX  87
$$

ILZ033-039-045-046-055>057-062-063-142200-
EAST-CENTRAL ILLINOIS

CITY           SKY/WX    TMP DP  RH WIND       PRES   REMARKS
CHAMPAIGN      FAIR      84  65  52 SW5       29.99F HX  86
DANVILLE*      FAIR      84  67  55 SE5       29.97F HX  87
RANTOUL*       FAIR      85  68  56 SW3       29.98F HX  88
MATTOON        FAIR      84  65  52 S8        29.98F HX  86
PARIS*         FAIR      83  68  60 SW3       30.00F HX  86
$$

ILZ079-100>102-142200-
SOUTHWEST ILLINOIS

CITY           SKY/WX    TMP DP  RH WIND       PRES   REMARKS
ALTON          CLOUDY    81  70  69 S12       29.96F HX  84
BELLEVILLE     MOSUNNY   79  72  79 SW9       29.96F HX  82
CAHOKIA*       PTSUNNY   81  70  69 S8        29.95F HX  84
SPARTA*        LGT RAIN  77  74  90 SW7       29.99F
$$

ILZ064>066-069>071-074>076-080>082-084>086-088>090-092>094-142200-
SOUTH-CENTRAL ILLINOIS

CITY           SKY/WX    TMP DP  RH WIND       PRES   REMARKS
CARBONDALE     PTSUNNY   79  72  79 S6        29.99F HX  82
CAIRO*         DRIZZLE   78  75  90 SE3       30.00S HX  81
EFFINGHAM*     FAIR      87  67  51 SE3       29.99F HX  89
MT. VERNON     FAIR      79  74  84 SW6       29.99F HX  82
CENTRALIA*     CLOUDY    79  76  92 SE6       29.98F HX  83
SALEM*         CLOUDY    78  73  83 SW6       29.99S HX  81
METROPOLIS*    RAIN      79  74  85 CALM      30.01F HX  82
$$

ILZ067-068-072-073-078-083-087-091-142200-
SOUTHEAST ILLINOIS

CITY           SKY/WX    TMP DP  RH WIND       PRES   REMARKS
LAWRENCEVILLE  FAIR      90  61  37 MISG      29.98F HX  90
FLORA*         PTSUNNY   86  69  57 S5        29.98F HX  90
FAIRFIELD*     CLOUDY    84  68  58 SW5       29.97F HX  87
HARRISBURG*    PTSUNNY   83  72  69 SW7       30.00S HX  88
ROBINSON*      FAIR      87  68  54 SW6       29.99F HX  90
CARMI*         CLOUDY    84  68  58 S8        29.98F HX  87
$$

ABBREVIATIONS USED IN REMARKS
   TC - TEMPERATURE IN CELSIUS
  WCI - WIND CHILL INDEX
   HX - HEAT INDEX
  VSB - VISIBILITY
$$




USA.gov is the U.S. government's official web portal to all federal, state and local government web resources and services.